Ames, IA

5:24 PM CDT on May 24, 2018 (GMT -0500)
Ames Municipal

Weather History for KAMW - January, 2013

Change the Weather History Date:

Saturday, January 26, 2013

  Actual Average Record
Temperature  
Mean Temperature 19 °F 20 °F  
Max Temperature 31 °F 30 °F 66 °F (2002)
Min Temperature 6 °F 11 °F -5 °F (1997)
Degree Days  
Heating Degree Days 46 45  
Month to date heating degree days 1147 1179  
Since 1 July heating degree days 3716 3933  
Cooling Degree Days 0 0  
Month to date cooling degree days 0 0  
Year to date cooling degree days 0 0  
Moisture  
Dew Point 7 °F    
Average Humidity 62    
Maximum Humidity 80    
Minimum Humidity 43    
Precipitation  
Precipitation 0.00 in 0.04 in 0.20 in (2004)
Month to date precipitation 0.03 0.53  
Sea Level Pressure  
Sea Level Pressure 30.29 in    
Wind  
Wind Speed 9 mph (ESE)    
Max Wind Speed 16 mph    
Max Gust Speed 21 mph    
Visibility 10 miles    
Events      
T = Trace of Precipitation, MM = Missing Value Source: NWS Daily Summary

Daily Weather History Graph

Daily Weather History Graph

Search for Another Location

Airport or City:

Astronomy

Jan. 26, 2013 Rise Set
Actual Time 7:32 AM CST 5:22 PM CST
Civil Twilight 7:02 AM CST 5:52 PM CST
Nautical Twilight 6:28 AM CST 6:25 PM CST
Astronomical Twilight 5:55 AM CST 6:58 PM CST
Moon 5:18 PM CST (1/26) 6:50 AM CST (1/26)
Length of Visible Light 10h 49m
Length of Day
9h 49m
Full, 100% of the Moon is Illuminated
Jan 26
Full
Jan 26
Full
Feb 3
Last Quarter
Feb 10
New
Feb 17
First Quarter

Hourly Weather History & Observations

Time (CST) Temp. Windchill Dew Point Humidity Pressure Visibility Wind Dir Wind Speed Gust Speed Precip Events Conditions
12:53 AM 8.1 °F -6.2 °F 1.0 °F 73% 30.32 in 10.0 mi North 10.4 mph - N/A   Clear
1:53 AM 8.1 °F -2.0 °F 1.0 °F 73% 30.35 in 10.0 mi NNW 5.8 mph - N/A   Clear
2:53 AM 7.0 °F -4.5 °F 1.0 °F 77% 30.35 in 10.0 mi North 6.9 mph - N/A   Clear
3:53 AM 7.0 °F -4.5 °F -0.0 °F 73% 30.35 in 10.0 mi NNE 6.9 mph - N/A   Clear
4:53 AM 6.1 °F -0.9 °F -0.0 °F 76% 30.35 in 10.0 mi NNE 3.5 mph - N/A   Clear
5:53 AM 6.1 °F -2.8 °F -0.0 °F 76% 30.36 in 10.0 mi NE 4.6 mph - N/A   Clear
6:53 AM 6.1 °F - 1.0 °F 80% 30.38 in 10.0 mi Calm Calm - N/A   Clear
7:53 AM 6.1 °F - 1.0 °F 80% 30.39 in 10.0 mi Calm Calm - N/A   Clear
8:53 AM 9.0 °F -2.2 °F 1.9 °F 73% 30.40 in 10.0 mi ESE 6.9 mph - N/A   Clear
9:53 AM 12.9 °F 1.6 °F 3.9 °F 67% 30.39 in 10.0 mi SE 8.1 mph - N/A   Overcast
10:53 AM 15.1 °F 2.5 °F 5.0 °F 64% 30.39 in 10.0 mi SE 10.4 mph - N/A   Overcast
11:53 AM 19.9 °F 8.6 °F 7.0 °F 57% 30.35 in 10.0 mi SE 10.4 mph - N/A   Overcast
12:53 PM 24.1 °F 12.5 °F 9.0 °F 53% 30.30 in 10.0 mi SE 12.7 mph - N/A   Clear
1:53 PM 28.9 °F 18.6 °F 10.0 °F 45% 30.28 in 10.0 mi SSE 12.7 mph - N/A   Clear
2:53 PM 30.9 °F 21.2 °F 10.9 °F 43% 30.25 in 10.0 mi SSE 12.7 mph - N/A   Clear
3:53 PM 30.0 °F 20.5 °F 10.9 °F 45% 30.24 in 10.0 mi SE 11.5 mph - N/A   Clear
4:53 PM 30.9 °F 22.2 °F 12.9 °F 47% 30.21 in 10.0 mi SE 10.4 mph - N/A   Partly Cloudy
5:53 PM 28.9 °F 18.2 °F 12.9 °F 51% 30.19 in 10.0 mi SE 13.8 mph - N/A   Partly Cloudy
6:53 PM 30.0 °F 20.0 °F 12.9 °F 49% 30.20 in 10.0 mi SE 12.7 mph - N/A   Overcast
7:53 PM 28.9 °F 18.6 °F 12.9 °F 51% 30.19 in 10.0 mi SE 12.7 mph - N/A   Scattered Clouds
8:53 PM 28.9 °F 18.6 °F 12.9 °F 51% 30.19 in 10.0 mi SSE 12.7 mph - N/A   Partly Cloudy
9:53 PM 28.9 °F 19.8 °F 14.0 °F 54% 30.19 in 10.0 mi SE 10.4 mph 19.6 mph N/A   Overcast
10:53 PM 28.9 °F 20.4 °F 15.1 °F 56% 30.19 in 10.0 mi SE 9.2 mph - N/A   Mostly Cloudy
11:53 PM 28.9 °F 19.2 °F 15.1 °F 56% 30.18 in 10.0 mi SE 11.5 mph - N/A   Mostly Cloudy